Probability
0 0 0 0 0 0 0 0 0 0 0 0 0 0 0 0 0 0 0 0 0 0 0 0 0 0 0 0 0 1 1 1 0 0 0 0 0 0
0 0 0 0 0 0 0 0 0 0 0 0 0 0 0 0 0 0 0 0 0 0 0 0 0 0 0 0 0 0 0 0 0 0 0 0 0 0
0 0 0 0 0 0 0 0 0 0 0 0 0 0 0 0 0 0 0 0 0 0 0 0 0 0 0 0 0 0 0 0 0 0 0 0 0 0
0 0 0 0 0 0 0 0 0 0 0 0 0 0 0 0 0 0 0 0 0 0 0 0 0 0 0 0 0 0 0 0 0 0 0 0 0 0
0 0 0 0 0 0 0 0 0 0 0 0 0 0 0 0 0 0 0 0 0 0 0 0 0 0 0 0 0 0 0 0 0 0 0 0 0 0
0 0 0 0 0 0 0 0 0 0 0 0 0 0 0 0 0 0 0 0 0 0 0 0 0 0 0 0 0 0 0 0 0 0 0 0 0 0
0 0 0 0 0 0 0 0 0 0 0 0 0 0 0 0 0 0 0 0 0 0 0 0 0 0 0 0 0 0 0 0 0 0 0 0 0 0
0 0 0 0 0 0 0 0 0 0 0 0 0 0 0 0 0 0 0 0 0 0 0 0 0 0 0 0 0 0 0 0 0 0 0 0 0 0
0 0 0 0 0 0 0 0 0 0 0 0 0 0 0 0 0 0 0 0 0 0 0 0 0 0 0 0 0 0 0 0 0 0 0 0 0 0
0 0 0 0 0 0 0 0 0 0 0 0 0 0 0 0 0 0 0 0 0 0 0 0 0 0 0 0 0 0 0 0 0 0 0 0 0 0
0 0 0 0 0 0 0 0 0 0 0 0 0 0 0 0 0 0 0 0 0 0 0 0 0 0 0 0 0 0 0 0 0 0 0 0 0 0
0 0 0 0 0 0 0 0 0 0 0 0 0 0 0 0 0 0 0 0 0 0 0 0 0 0 0 0 0 0 0 0 0 0 0 0 0 0
0 0 0 0 0 0 0 0 0 0 0 0 0 0 0 0 0 0 0 0 0 0 0 0 0 0 0 0 0 0 0 0 0 0 0 0 0 0
0 0 0 0 0 0 0 0 0 0 0 0 0 0 0 0 0 0 0 0 0 0 0 0 0 0 0 0 0 0 0 0 0 0 0 0 0 0
0 0 0 0 0 0 0 0 0 0 0 0 0 0 0 0 0 0 0 0 0 0 0 0 0 0 0 0 0 0 0 0 0 0 0 0 0 0
0 0 0 0 0 0 0 0 0 0 0 0 0 0 0 0 0 0 0 0 0 0 0 0 0 0 0 0 0 0 0 0 0 0 0 0 0 0
0 0 0 0 0 0 0 0 0 0 0 0 0 0 0 0 0 0 0 0 0 0 0 0 0 0 0 0 0 0 0 0 0 0 0 0 0 0
0 0 0 0 0 0 0 0 0 0 0 0 0 0 0 0 0 0 0 0 0 0 0 0 0 0 0 0 0 0 0 0 0 0 0 0 0 0
0 0 0 0 0 0 0 0 0 0 0 0 0 0 0 0 0 0 0 0 0 0 0 0 0 0 0 0 0 0 0 0 0 0 0 0 0 0
0 0 0 0 0 0 0 0 0 0 0 0 0 0 0 0 0 0 0 0 0 0 0 0 0 0 0 0 0 0 0 0 0 0 0 0 0 0
0 0 0 0 0 0 0 0 0 0 0 0 0 0 0 0 0 0 0 0 0 0 0 0 0 0 0 0 0 0 0 0 0 0 0 0 0 0
0 0 0 0 0 0 0 0 0 0 0 0 0 0 0 0 0 0 0 0 0 0 0 0 0 0 0 0 0 0 0 0 0 0 0 0 0 0
0 0 0 0 0 0 0 0 0 0 0 0 0 0 0 0 0 0 0 0 0 0 0 0 0 0 0 0 0 0 0 0 0 0 0 0 0 0
Wind_Speed
9 10 9 8 8 8 9 10 14 18 15 9 8 10 11 11 16 14 14 20 26 29 31 29 27 25 24 25 26 25 23 22 22 21 19 18 17 17
9 11 11 9 8 7 8 8 9 14 18 11 8 9 10 10 15 15 16 22 25 29 30 28 27 27 26 25 25 23 22 22 22 22 21 19 18 17
11 11 13 12 9 8 7 7 8 9 16 15 8 9 10 12 13 14 15 15 14 25 29 28 27 26 25 23 22 23 23 24 24 23 21 19 18 18
13 13 13 11 12 10 9 9 10 9 13 19 13 8 11 12 13 13 12 12 12 19 25 26 26 26 24 24 24 24 24 24 24 23 21 19 18 18
13 12 11 11 12 11 11 12 11 11 11 14 16 10 8 8 10 9 9 10 10 14 19 22 24 26 26 27 27 26 25 24 23 22 20 19 18 18
10 10 10 10 12 13 12 12 13 14 13 13 13 11 9 8 5 8 10 9 12 10 14 16 20 25 28 30 29 26 25 24 23 21 19 19 18 18
9 9 9 12 15 13 14 15 15 14 14 14 14 12 10 7 7 7 12 10 11 9 8 10 11 12 17 23 23 21 21 21 20 20 20 20 19 18
12 12 12 11 13 22 25 24 22 19 17 16 14 15 15 11 9 9 11 11 10 8 9 10 7 9 7 8 19 23 22 21 19 20 21 20 20 19
13 14 14 13 18 16 20 24 21 24 23 17 19 19 19 16 15 14 13 13 13 6 8 8 6 8 5 9 20 22 21 21 21 21 21 20 19 18
11 14 13 11 14 19 18 19 19 19 19 16 16 18 18 18 17 17 17 14 5 2 7 7 6 5 5 7 18 20 19 21 22 22 22 20 18 17
13 14 15 12 21 28 20 20 22 21 20 21 24 25 28 28 23 14 11 8 6 4 3 4 4 4 4 5 10 19 20 21 22 22 21 19 18 16
11 12 19 22 27 30 20 18 21 20 19 19 19 20 18 17 19 14 12 9 5 5 5 6 5 5 4 3 4 5 9 17 21 20 19 18 17 8
12 11 11 27 32 33 28 17 20 24 19 18 17 14 10 7 7 6 5 5 4 4 6 5 5 4 5 4 3 3 3 2 4 7 12 16 17 12
13 11 14 30 32 31 22 21 27 25 13 13 13 12 10 8 4 2 2 4 3 4 8 5 5 6 6 5 4 4 2 3 3 3 2 5 9 14
13 23 29 30 26 18 21 26 22 12 13 12 12 11 8 5 2 1 4 7 11 10 7 5 6 7 5 5 5 5 4 3 3 3 3 3 3 3
13 18 24 23 20 21 19 15 10 11 13 12 11 10 8 4 1 1 2 5 7 7 9 10 8 7 4 3 4 4 3 4 3 3 3 3 3 3
19 10 10 12 12 11 11 11 11 11 11 11 11 10 7 2 1 1 1 2 3 4 5 6 7 6 5 4 4 3 3 2 2 3 3 3 4 5
19 11 11 12 13 13 14 14 13 12 12 12 11 9 5 2 1 1 2 3 5 5 5 4 2 3 3 3 2 3 3 2 3 4 4 3 3 4
12 11 11 12 13 13 13 14 15 14 12 11 10 8 3 1 2 2 3 4 5 5 4 3 2 2 3 2 1 3 3 3 3 3 4 5 4 3
9 10 11 12 13 13 14 14 15 13 12 10 9 5 2 1 2 2 3 5 5 4 3 2 2 2 3 2 1 2 5 4 2 2 3 3 4 6
10 10 11 12 13 13 14 14 15 13 13 10 7 4 1 1 2 3 4 8 5 3 3 2 1 5 3 3 1 3 3 7 8 5 3 3 3 3
10 11 11 12 13 13 14 14 14 13 12 8 5 2 1 2 3 4 4 4 3 3 3 2 2 3 2 1 1 3 4 4 7 11 13 12 4 3
11 11 11 12 12 13 13 15 16 12 10 6 4 2 3 3 4 5 5 4 4 3 3 2 2 1 0 1 2 3 4 4 2 2 3 9 18 13
Wind_Direction
294 290 286 284 279 274 271 269 276 284 280 255 245 239 237 235 238 236 235 238 240 245 246 244 243 243 238 236 234 225 214 207 209 210 210 214 224 236
302 300 298 293 288 283 278 277 273 278 284 279 259 250 241 237 238 236 236 236 236 241 244 240 237 236 233 229 224 212 202 203 206 208 210 216 225 231
312 308 305 304 299 296 291 286 283 282 287 290 275 261 249 242 243 238 238 237 237 237 241 238 233 231 228 219 207 201 201 203 205 208 210 215 222 226
311 306 305 309 307 304 300 296 293 286 286 291 290 276 259 250 246 241 239 240 240 238 236 236 231 227 222 211 200 197 199 202 204 206 207 210 217 224
307 305 307 311 310 307 305 302 299 294 286 286 289 286 274 260 250 247 247 246 243 244 240 236 232 226 218 207 200 198 198 199 202 204 204 206 212 219
303 301 303 307 309 311 309 304 304 303 297 290 287 286 281 270 245 252 253 242 243 237 237 236 233 226 217 209 201 197 196 197 197 199 202 205 207 215
306 300 299 300 298 311 318 315 314 310 305 299 294 290 284 275 257 247 256 252 237 222 228 230 227 221 212 208 195 189 190 193 197 200 204 204 204 212
320 319 313 306 320 326 319 316 314 308 307 305 301 296 294 287 284 277 268 261 252 203 210 226 212 213 197 186 186 183 184 188 196 206 208 206 206 210
321 320 317 319 331 320 315 316 313 306 301 298 296 295 298 299 299 295 288 273 256 196 191 219 196 207 179 185 181 179 183 190 198 206 207 206 208 213
314 312 307 314 319 319 316 314 309 304 296 289 283 285 287 288 287 286 285 283 264 174 179 202 178 185 160 166 181 181 191 198 201 204 203 204 209 214
313 311 309 307 313 319 317 310 306 302 297 284 278 278 276 277 276 276 271 257 238 205 178 167 142 129 135 157 180 190 200 206 205 203 202 205 209 213
308 304 308 313 316 316 311 304 302 304 308 307 297 287 279 277 279 272 268 256 221 196 178 151 139 132 122 111 144 178 203 210 207 206 208 206 205 201
312 312 310 315 314 310 308 301 303 312 311 306 300 297 292 280 274 271 278 265 211 176 166 146 134 121 120 116 111 140 161 152 185 204 205 201 208 201
316 314 312 313 311 312 311 310 316 318 307 304 303 305 306 298 287 308 13 32 53 126 140 130 126 132 124 123 139 137 125 120 120 123 122 198 220 221
317 318 318 317 320 320 315 317 320 313 305 304 307 309 303 295 303 26 62 70 66 65 65 66 100 111 102 128 140 141 139 138 134 137 148 163 180 196
318 317 322 323 322 317 315 313 308 302 309 308 309 307 301 304 329 36 99 94 83 65 57 61 70 88 95 96 119 127 129 141 145 146 145 165 187 188
327 320 322 322 318 316 314 311 311 312 315 314 310 304 298 303 355 39 71 57 92 107 90 73 65 65 78 110 113 121 132 141 159 150 157 194 211 201
332 323 323 320 318 319 319 317 316 318 319 316 310 301 289 249 174 85 78 98 112 111 101 96 86 64 60 39 121 126 138 164 178 182 183 194 228 211
331 320 319 319 317 317 317 316 316 317 317 314 308 302 280 205 165 143 119 110 109 103 95 85 75 89 89 65 356 206 176 174 171 179 192 203 217 205
320 318 317 317 316 316 318 316 312 314 317 316 312 305 281 180 150 138 124 114 111 105 95 68 76 102 119 149 237 273 219 206 199 209 212 214 231 241
318 316 315 315 315 316 316 312 310 314 317 317 314 310 319 106 108 109 109 120 105 96 106 102 79 119 104 82 17 303 269 233 221 201 184 194 222 219
313 314 315 314 316 316 314 311 312 315 318 317 314 326 34 70 88 92 92 94 85 97 111 99 80 76 76 110 254 274 283 286 268 258 236 214 198 191
311 313 314 315 316 314 313 311 313 316 318 316 323 4 43 62 72 78 82 86 94 83 69 53 39 42 341 235 252 264 270 275 276 296 273 234 222 215